• In Germany
  • List of Countries
  • For 7 days
  • Water Temperature
  • Satellite Maps
  • Weather Map
  • Weather Widgets
  • user-avatar
    Login

    Hourly Weather Santiago del Estero

    Today, 21 October, Saturday

    Time Temperature Precipitation Wind Pressure Humidity
    00:00 +26°C° 0 mm 2 mps 737 mmHg 65%
    01:00 +26°C° 0 mm 2 mps 738 mmHg 67%
    02:00 +25°C° 0 mm 2 mps 738 mmHg 68%
    03:00 +25°C° 0 mm 3 mps 739 mmHg 70%
    04:00 +23°C° 0 mm 4 mps 739 mmHg 71%
    05:00 +23°C° 0 mm 6 mps 740 mmHg 72%
    06:00 +22°C° 0 mm 6 mps 741 mmHg 70%
    07:00 +22°C° 0 mm 7 mps 743 mmHg 68%
    08:00 +21°C° 0 mm 8 mps 744 mmHg 66%
    09:00 +21°C° 0 mm 8 mps 745 mmHg 63%
    10:00 +21°C° 0 mm 7 mps 746 mmHg 61%
    11:00 +21°C° 0 mm 7 mps 746 mmHg 58%
    12:00 +22°C° 0 mm 7 mps 746 mmHg 52%
    13:00 +23°C° 0 mm 7 mps 747 mmHg 45%
    14:00 +26°C° 0 mm 6 mps 747 mmHg 38%
    15:00 +26°C° 0 mm 6 mps 747 mmHg 37%
    16:00 +26°C° 0 mm 5 mps 747 mmHg 35%
    17:00 +26°C° 0 mm 4 mps 747 mmHg 34%
    18:00 +25°C° 0 mm 4 mps 747 mmHg 37%
    19:00 +22°C° 0 mm 3 mps 748 mmHg 41%
    20:00 +21°C° 0 mm 3 mps 748 mmHg 44%
    21:00 +20°C° 0 mm 3 mps 749 mmHg 45%
    22:00 +19°C° 0 mm 3 mps 749 mmHg 47%
    23:00 +19°C° 0 mm 3 mps 750 mmHg 49%

    Tomorrow, 22 October, Sunday

    Time Temperature Precipitation Wind Pressure Humidity
    00:00 +18°C° 0 mm 3 mps 750 mmHg 47%
    01:00 +17°C° 0 mm 3 mps 750 mmHg 45%
    02:00 +17°C° 0 mm 3 mps 750 mmHg 44%
    03:00 +16°C° 0 mm 2 mps 750 mmHg 44%
    04:00 +15°C° 0 mm 2 mps 750 mmHg 45%
    05:00 +15°C° 0 mm 1 mps 750 mmHg 45%
    06:00 +16°C° 0 mm 2 mps 750 mmHg 42%
    07:00 +18°C° 0 mm 2 mps 751 mmHg 39%
    08:00 +19°C° 0 mm 3 mps 752 mmHg 36%
    09:00 +21°C° 0 mm 3 mps 751 mmHg 32%
    10:00 +23°C° 0 mm 4 mps 751 mmHg 28%
    11:00 +25°C° 0 mm 5 mps 751 mmHg 24%
    12:00 +27°C° 0 mm 5 mps 750 mmHg 23%
    13:00 +28°C° 0 mm 5 mps 748 mmHg 22%
    14:00 +29°C° 0 mm 5 mps 747 mmHg 20%
    15:00 +28°C° 0 mm 5 mps 746 mmHg 21%
    16:00 +28°C° 0 mm 5 mps 745 mmHg 21%
    17:00 +28°C° 0 mm 5 mps 744 mmHg 21%
    18:00 +26°C° 0 mm 5 mps 745 mmHg 24%
    19:00 +25°C° 0 mm 4 mps 745 mmHg 27%
    20:00 +22°C° 0 mm 4 mps 745 mmHg 30%
    21:00 +21°C° 0 mm 4 mps 745 mmHg 32%
    22:00 +20°C° 0 mm 4 mps 746 mmHg 34%
    23:00 +20°C° 0 mm 4 mps 746 mmHg 36%

    Day after tomorrow, 23 October, Monday

    Time Temperature Precipitation Wind Pressure Humidity
    00:00 +19°C° 0 mm 4 mps 745 mmHg 39%
    01:00 +18°C° 0 mm 4 mps 745 mmHg 41%
    02:00 +18°C° 0 mm 4 mps 744 mmHg 44%
    03:00 +17°C° 0 mm 4 mps 744 mmHg 47%
    04:00 +17°C° 0 mm 4 mps 745 mmHg 50%
    05:00 +15°C° 0 mm 4 mps 745 mmHg 53%
    06:00 +17°C° 0 mm 4 mps 745 mmHg 51%
    07:00 +17°C° 0 mm 5 mps 745 mmHg 49%
    08:00 +19°C° 0 mm 5 mps 746 mmHg 47%
    09:00 +22°C° 0 mm 5 mps 745 mmHg 42%
    10:00 +25°C° 0 mm 5 mps 745 mmHg 37%
    11:00 +27°C° 0 mm 5 mps 744 mmHg 31%
    12:00 +28°C° 0 mm 5 mps 743 mmHg 29%
    13:00 +30°C° 0 mm 6 mps 742 mmHg 26%
    14:00 +32°C° 0 mm 6 mps 742 mmHg 24%
    15:00 +32°C° 0 mm 5 mps 741 mmHg 23%
    16:00 +32°C° 0 mm 5 mps 740 mmHg 23%
    17:00 +32°C° 0 mm 5 mps 740 mmHg 23%
    18:00 +29°C° 0 mm 5 mps 740 mmHg 26%
    19:00 +27°C° 0 mm 4 mps 740 mmHg 29%
    20:00 +25°C° 0 mm 4 mps 741 mmHg 32%
    21:00 +23°C° 0 mm 4 mps 741 mmHg 32%
    22:00 +23°C° 0 mm 4 mps 741 mmHg 32%
    23:00 +22°C° 0 mm 5 mps 741 mmHg 33%

    24 October, Tuesday

    Time Temperature Precipitation Wind Pressure Humidity
    00:00 +21°C° 0 mm 4 mps 741 mmHg 35%
    01:00 +20°C° 0 mm 4 mps 740 mmHg 36%
    02:00 +20°C° 0 mm 4 mps 740 mmHg 38%
    03:00 +19°C° 0 mm 3 mps 740 mmHg 41%
    04:00 +18°C° 0 mm 3 mps 740 mmHg 44%
    05:00 +18°C° 0 mm 3 mps 740 mmHg 47%
    06:00 +19°C° 0 mm 3 mps 741 mmHg 45%
    07:00 +21°C° 0 mm 4 mps 741 mmHg 42%
    08:00 +23°C° 0 mm 4 mps 742 mmHg 40%
    09:00 +26°C° 0 mm 4 mps 742 mmHg 35%
    10:00 +29°C° 0 mm 4 mps 741 mmHg 30%
    11:00 +32°C° 0 mm 4 mps 741 mmHg 25%
    12:00 +34°C° 0 mm 4 mps 740 mmHg 23%
    13:00 +35°C° 0 mm 5 mps 740 mmHg 22%
    14:00 +37°C° 0 mm 5 mps 739 mmHg 20%
    15:00 +37°C° 0 mm 4 mps 738 mmHg 21%
    16:00 +37°C° 0 mm 4 mps 738 mmHg 21%
    17:00 +37°C° 0 mm 4 mps 737 mmHg 21%
    18:00 +35°C° 0 mm 4 mps 738 mmHg 24%
    19:00 +32°C° 0 mm 4 mps 739 mmHg 27%
    20:00 +29°C° 0 mm 4 mps 739 mmHg 30%
    21:00 +28°C° 0 mm 4 mps 739 mmHg 32%
    22:00 +27°C° 0 mm 4 mps 740 mmHg 34%
    23:00 +27°C° 0 mm 4 mps 740 mmHg 36%

    25 October, Wednesday

    Time Temperature Precipitation Wind Pressure Humidity
    00:00 +26°C° 0 mm 3 mps 739 mmHg 39%
    01:00 +25°C° 0 mm 3 mps 739 mmHg 42%
    02:00 +24°C° 0 mm 2 mps 739 mmHg 45%
    03:00 +24°C° 0.1 mm 2 mps 739 mmHg 47%
    04:00 +22°C° 0.1 mm 3 mps 739 mmHg 49%
    05:00 +22°C° 0.1 mm 3 mps 739 mmHg 52%
    06:00 +24°C° 0 mm 3 mps 739 mmHg 52%
    07:00 +25°C° 0 mm 4 mps 740 mmHg 53%
    08:00 +26°C° 0 mm 4 mps 740 mmHg 53%
    09:00 +28°C° 0.1 mm 3 mps 739 mmHg 50%
    10:00 +30°C° 0.1 mm 3 mps 739 mmHg 46%
    11:00 +33°C° 0.1 mm 3 mps 739 mmHg 43%
    12:00 +34°C° 0.2 mm 3 mps 738 mmHg 42%
    13:00 +35°C° 0.2 mm 3 mps 737 mmHg 42%
    14:00 +36°C° 0.2 mm 3 mps 736 mmHg 41%
    15:00 +36°C° 0 mm 3 mps 735 mmHg 42%
    16:00 +36°C° 0 mm 4 mps 735 mmHg 43%
    17:00 +36°C° 0 mm 4 mps 735 mmHg 44%
    18:00 +34°C° 0.8 mm 4 mps 735 mmHg 51%
    19:00 +32°C° 0.8 mm 5 mps 736 mmHg 58%
    20:00 +29°C° 0.8 mm 5 mps 736 mmHg 65%
    21:00 +27°C° 2.8 mm 5 mps 736 mmHg 70%
    22:00 +26°C° 2.8 mm 5 mps 736 mmHg 76%
    23:00 +23°C° 2.8 mm 4 mps 737 mmHg 81%

    26 October, Thursday

    Time Temperature Precipitation Wind Pressure Humidity
    00:00 +23°C° 1.8 mm 4 mps 736 mmHg 83%
    01:00 +24°C° 1.8 mm 3 mps 736 mmHg 85%
    02:00 +22°C° 1.8 mm 3 mps 736 mmHg 87%
    03:00 +22°C° 0.3 mm 3 mps 736 mmHg 88%
    04:00 +22°C° 0.3 mm 3 mps 737 mmHg 89%
    05:00 +22°C° 0.3 mm 3 mps 737 mmHg 89%
    06:00 +22°C° 0 mm 4 mps 737 mmHg 85%
    07:00 +23°C° 0 mm 4 mps 738 mmHg 81%
    08:00 +25°C° 0 mm 4 mps 738 mmHg 76%
    09:00 +26°C° 0 mm 4 mps 738 mmHg 71%
    10:00 +28°C° 0 mm 3 mps 738 mmHg 65%
    11:00 +29°C° 0 mm 3 mps 738 mmHg 60%
    12:00 +31°C° 0 mm 3 mps 738 mmHg 54%
    13:00 +33°C° 0 mm 3 mps 738 mmHg 49%
    14:00 +35°C° 0 mm 4 mps 737 mmHg 43%
    15:00 +35°C° 0 mm 4 mps 737 mmHg 42%
    16:00 +35°C° 0 mm 4 mps 737 mmHg 41%
    17:00 +35°C° 0 mm 4 mps 737 mmHg 39%
    18:00 +33°C° 0 mm 3 mps 737 mmHg 44%
    19:00 +31°C° 0 mm 2 mps 738 mmHg 48%
    20:00 +29°C° 0 mm 1 mps 739 mmHg 53%
    21:00 +29°C° 0 mm 1 mps 739 mmHg 54%
    22:00 +28°C° 0 mm 2 mps 739 mmHg 56%
    23:00 +28°C° 0 mm 2 mps 740 mmHg 57%
    Show more